Home   Weather   Fort Simpson   Past weeks

Flag for Canada Past Weather in Fort Simpson, Northwest Territories, Canada — Yesterday and Last 2 Weeks

Now
43 °F

Light rain. Fog.


Feels Like: 39 °F
Forecast: 36 / 44 °F
Wind: 7 mph from West

Location: Fort Simpson

Current Time: Sep 27, 2016 at 2:53:39 AM

Latest Report: Sep 27, 2016 at 2:00 AM


Visibility: 2 mi

Pressure: 29.58 "Hg

Humidity: 93%

Dew Point: 41 °F

Location of Fort SimpsonLocation

Past Weather in Fort Simpson — Graph

°F

Fort Simpson Temperature Yesterday

Maximum temperature yesterday: 52 °F (at 4:00 PM)
Minimum temperature yesterday: 41 °F (at 7:00 AM)
Average temperature yesterday: 46 °F

High & Low Weather Summary for the Past Weeks

 TemperatureHumidityPressure
High77 °F (Sep 22, 4:00 PM)100% (Sep 14, 6:49 AM)30.20 "Hg (Sep 14, 6:49 AM)
Low34 °F (Sep 17, 8:00 AM)17% (Sep 22, 6:00 PM)29.32 "Hg (Sep 17, 5:00 AM)
Average48 °F76%29.73 "Hg
* Reported Sep 12 1:00 AM — Sep 27 1:00 AM, Fort Simpson, Weather by CustomWeather, © 2016

Note: Actual official high and low records may vary slightly from our data, if they occured in-between our weather recording intervals... More about our weather records

Advertising

Fort Simpson Weather History for the Previous 24 Hours

Scroll right to see more
 ConditionsComfort  
Time TempWeatherWind HumidityBarometerVisibility
1:00 AM
Tue, Sep 27
43 °FLight rain. Mostly cloudy.12 mph100%29.58 "Hg15 mi
12:50 AM43 °FLight rain. Mostly cloudy.13 mph100%29.58 "Hg15 mi
12:00 AM45 °FOvercast.7 mph93%29.58 "Hg15 mi
11:00 PM
Mon, Sep 26
45 °FLight rain. Mostly cloudy.5 mph93%29.59 "Hg15 mi
10:00 PM45 °FLight rain. Low clouds.5 mph93%29.60 "Hg15 mi
9:00 PM45 °FLight rain. Overcast.6 mph93%29.59 "Hg15 mi
8:00 PM48 °FLight rain. Mostly cloudy.2 mph82%29.59 "Hg15 mi
7:00 PM50 °FMore clouds than sun.2 mph76%29.60 "Hg15 mi
6:00 PM50 °FMostly cloudy.3 mph71%29.62 "Hg15 mi
5:00 PM52 °FMostly cloudy.2 mph67%29.62 "Hg15 mi
4:00 PM52 °FPartly sunny.3 mph67%29.63 "Hg15 mi
3:00 PM50 °FMostly cloudy.5 mph67%29.64 "Hg15 mi
2:00 PM50 °FPartly sunny.6 mph67%29.65 "Hg15 mi
1:00 PM48 °FSprinkles. Mostly cloudy.No wind66%29.68 "Hg15 mi
11:00 AM45 °FMore clouds than sun.2 mph71%29.70 "Hg15 mi
10:00 AM43 °FPartly sunny.2 mph76%29.73 "Hg15 mi
9:00 AM43 °FOvercast.3 mph76%29.75 "Hg15 mi
8:00 AM41 °FOvercast.2 mph76%29.75 "Hg15 mi
7:00 AM41 °FPassing clouds.5 mph76%29.77 "Hg15 mi
6:00 AM43 °FPartly cloudy.5 mph71%29.78 "Hg15 mi
5:00 AM43 °FPassing clouds.3 mph71%29.80 "Hg15 mi
4:00 AM43 °FPassing clouds.6 mph71%29.82 "Hg15 mi
3:00 AM43 °FPassing clouds.2 mph76%29.83 "Hg15 mi
2:00 AM45 °FPassing clouds.6 mph71%29.85 "Hg15 mi
Weather by CustomWeather, © 2016

See weather overviewHow to use our weather pages